Regional Weather Roundup
Issued by NWS Goodland, KS

Home | Current Version | Previous Version | Graphics & Text | Print | Product List | Glossary On
Versions: 1 2 3 4 5 6 7 8 9 10 11 12 13 14 15 16 17 18 19 20 21 22 23 24 25 26 27 28 29 30 31 32 33 34 35 36 37 38 39 40 41 42 43 44 45 46 47 48 49 50
000
ASUS43 KGLD 170059
RWRGLD

GOODLAND FORECAST AREA HOURLY WEATHER ROUNDUP
NATIONAL WEATHER SERVICE GOODLAND KS
600 PM MST TUE JAN 16 2018

...OFFICIAL OBSERVATIONS...

CITY           SKY/WX    TMP DP  RH WIND       PRES   REMARKS
GOODLAND KS    CLOUDY    10  -1  61 S9        30.43F
HILL CITY KS   CLOUDY    10  -1  61 CALM      30.60F
IMPERIAL NEB   CLOUDY    11  -1  58 S8        30.44F
MCCOOK NEB     CLOUDY     9   0  67 S6        30.53F
AKRON CO       CLOUDY    17   3  54 SE8       30.33S
BURLINGTON CO  CLOUDY    14   0  53 S10       30.39F WCI   1
LIMON CO       MOCLDY    17   0  47 SE7       30.33S
$$

...UNOFFICIAL OBSERVATIONS...

CITY           SKY/WX    TMP DP  RH WIND       PRES   REMARKS
LENORA KS        N/A     10  32 100 CALM        N/A
NORTON KS      CLEAR     10  -2  56 S3        30.57
SHARON SPRINGS   N/A     13  -6  42 SE7         N/A
TRENTON NEB      N/A      7  32 100 S5          N/A
KIT CARSON CO    N/A     17  -3  42 CALM        N/A
YUMA CO        FAIR      10  -2  56 SE8       30.37S
$$



USA.gov is the U.S. government's official web portal to all federal, state and local government web resources and services.